ONEWEB-0413

operational
NORAD ID: 50490 Int'l Des: 2021-132 Owner: ONEWEBN Country: UK Constellation: oneweb
LEOCIRCULARPOLARONEWEB_TYPE

关于 ONEWEB-0413

正在加载描述...

实时位置

正在加载3D地球...

即将过境

高度历史

Altitude vs Time

uPlot chart will show altitude changes over time

两行轨道根数

1 50490U 21132X 25250.09004299 -.00000003 00000-0 -39185-4 0 9999
2 50490 87.9177 31.6888 0001556 84.9053 275.2257 13.18687280184286
Epoch: Sep 7, 2025 • Age: 18 hours

当前状态

高度 1192.8 km
速度 7.26 km/s
星下点 -2.21°S, 98.89°E
发射日期 Dec 27, 2021
运行时间 3.6 years
类型 internet

技术详情

分类 Payload
质量 148.00 kg
干质量 140.00 kg
总质量 148.00 kg
长度 1.30 m
直径 1.00 m
跨度 5.00 m
形状 Trapezoid+2 pan
制造商 ONEWUS
平台类型 ARROW
阶段状态 In Orbit
所有者/国家 ONEWEBN/UK

大型星座

Loading constellations...